Location: Bonny Doon Airfield
(37.0704°N, 122.1252°W)
Time: 14:28:46
(UTC-08:00)

Vanguard 1 Rocket - Pass Details

Date: 28 October 2017
Orbit: 655 x 4222 km, 34.3° (Epoch: 22 November)

Event Time Altitude Azimuth Distance (km) Brightness Sun altitude
Rises 01:14:00 0° 188° (S) 8,338 - -65.7°
Reaches altitude 10° 01:25:25 10° 167° (SSE) 6,786 - -65.0°
Maximum altitude 01:33:30 13° 144° (SE) 5,885 - -64.4°
Drops below altitude 10° 01:40:12 10° 121° (ESE) 5,527 - -63.9°
Exits shadow 01:41:20 - 116° (ESE) 5,520 11.3 -63.8°
Sets 01:47:00 0° 97° (E) 5,758 11.6 -63.2°
